Time,TemperatureF,DewpointF,PressureIn,WindDirection,WindDirectionDegrees,WindSpeedMPH,WindSpeedGustMPH,Humidity,HourlyPrecipIn,Conditions,Clouds,dailyrainin,SoftwareType,DateUTC
2013-01-25 00:03:00,56.0,52.0,30.30,NNW,335,0.0,2.0,87,0.00,,,0.01,,2013-01-25 05:03:00,
2013-01-25 00:12:00,56.0,51.0,30.30,NNW,335,0.0,5.0,84,0.00,,,0.01,,2013-01-25 05:12:00,
2013-01-25 00:22:00,56.0,51.0,30.30,NNW,335,0.0,5.0,84,0.00,,,0.01,,2013-01-25 05:22:00,
2013-01-25 00:32:00,56.0,52.0,30.30,NNW,335,0.0,2.0,86,0.00,,,0.01,,2013-01-25 05:32:00,
2013-01-25 00:43:00,56.0,52.0,30.30,NNW,335,0.0,2.0,86,0.00,,,0.01,,2013-01-25 05:43:00,
2013-01-25 00:52:00,55.0,51.0,30.30,NNW,327,2.0,4.0,86,0.00,,,0.01,,2013-01-25 05:52:00,
2013-01-25 01:02:00,56.0,52.0,30.30,NW,325,1.0,4.0,87,0.00,,,0.01,,2013-01-25 06:02:00,
2013-01-25 01:11:00,56.0,52.0,30.30,NW,325,1.0,4.0,87,0.00,,,0.01,,2013-01-25 06:11:00,
2013-01-25 01:22:00,56.0,52.0,30.30,NW,325,0.0,2.0,87,0.00,,,0.01,,2013-01-25 06:22:00,
2013-01-25 01:32:00,55.0,52.0,30.30,NW,325,0.0,1.0,88,0.00,,,0.01,,2013-01-25 06:32:00,
2013-01-25 01:42:00,55.0,52.0,30.30,NW,325,0.0,1.0,88,0.00,,,0.01,,2013-01-25 06:42:00,
2013-01-25 01:52:00,54.0,51.0,30.30,NW,325,0.0,0.0,90,0.00,,,0.01,,2013-01-25 06:52:00,
2013-01-25 02:02:00,54.0,51.0,30.30,NW,325,0.0,2.0,91,0.00,,,0.01,,2013-01-25 07:02:00,
2013-01-25 02:11:00,54.0,51.0,30.30,NW,325,0.0,2.0,91,0.00,,,0.01,,2013-01-25 07:11:00,
2013-01-25 02:22:00,54.0,51.0,30.30,NW,326,0.0,2.0,91,0.00,,,0.01,,2013-01-25 07:22:00,
2013-01-25 02:32:00,53.0,50.0,30.30,NW,325,0.0,2.0,91,0.00,,,0.01,,2013-01-25 07:32:00,
2013-01-25 02:42:00,53.0,50.0,30.30,NW,325,0.0,2.0,91,0.00,,,0.01,,2013-01-25 07:42:00,
2013-01-25 02:51:00,52.0,50.0,30.30,NW,325,0.0,0.0,93,0.00,,,0.01,,2013-01-25 07:51:00,
2013-01-25 03:02:00,52.0,50.0,30.29,NW,326,1.0,3.0,93,0.00,,,0.01,,2013-01-25 08:02:00,
2013-01-25 03:12:00,51.0,49.0,30.29,NW,325,0.0,2.0,93,0.00,,,0.01,,2013-01-25 08:12:00,
2013-01-25 03:21:00,51.0,49.0,30.29,NW,325,0.0,2.0,93,0.00,,,0.01,,2013-01-25 08:21:00,
2013-01-25 03:32:00,51.0,49.0,30.28,NW,321,2.0,6.0,94,0.00,,,0.01,,2013-01-25 08:32:00,
2013-01-25 03:42:00,51.0,49.0,30.28,NW,321,2.0,6.0,94,0.00,,,0.01,,2013-01-25 08:42:00,
2013-01-25 03:52:00,51.0,49.0,30.27,NW,321,1.0,4.0,94,0.00,,,0.01,,2013-01-25 08:52:00,
2013-01-25 04:02:00,51.0,50.0,30.27,NW,321,0.0,2.0,95,0.00,,,0.01,,2013-01-25 09:02:00,
2013-01-25 04:11:00,51.0,50.0,30.27,NW,321,0.0,2.0,95,0.00,,,0.01,,2013-01-25 09:11:00,
2013-01-25 04:21:00,51.0,50.0,30.28,NW,321,0.0,3.0,95,0.00,,,0.01,,2013-01-25 09:21:00,
2013-01-25 04:32:00,50.0,49.0,30.28,NW,321,0.0,0.0,96,0.00,,,0.01,,2013-01-25 09:32:00,
2013-01-25 04:42:00,50.0,49.0,30.28,NW,321,0.0,0.0,96,0.00,,,0.01,,2013-01-25 09:42:00,
2013-01-25 04:51:00,50.0,49.0,30.27,NW,321,0.0,0.0,96,0.00,,,0.01,,2013-01-25 09:51:00,
2013-01-25 05:02:00,49.0,48.0,30.27,NW,321,0.0,1.0,96,0.00,,,0.01,,2013-01-25 10:02:00,
2013-01-25 05:12:00,49.0,48.0,30.27,NW,321,0.0,1.0,96,0.00,,,0.01,,2013-01-25 10:12:00,
2013-01-25 05:22:00,50.0,49.0,30.28,NW,321,0.0,2.0,97,0.00,,,0.01,,2013-01-25 10:22:00,
2013-01-25 05:32:00,50.0,49.0,30.28,NW,321,0.0,1.0,97,0.00,,,0.01,,2013-01-25 10:32:00,
2013-01-25 05:42:00,50.0,49.0,30.28,NW,321,0.0,1.0,97,0.00,,,0.01,,2013-01-25 10:42:00,
2013-01-25 05:51:00,51.0,50.0,30.28,NW,321,1.0,2.0,97,0.00,,,0.01,,2013-01-25 10:51:00,
2013-01-25 06:03:00,50.0,49.0,30.29,NW,321,0.0,2.0,97,0.00,,,0.01,,2013-01-25 11:03:00,
2013-01-25 06:11:00,50.0,49.0,30.29,NW,321,0.0,2.0,97,0.00,,,0.01,,2013-01-25 11:11:00,
2013-01-25 06:22:00,50.0,49.0,30.29,NW,321,0.0,1.0,98,0.00,,,0.01,,2013-01-25 11:22:00,
2013-01-25 06:33:00,50.0,49.0,30.29,NW,321,0.0,1.0,97,0.00,,,0.01,,2013-01-25 11:33:00,
2013-01-25 06:42:00,50.0,49.0,30.29,NW,321,0.0,1.0,97,0.00,,,0.01,,2013-01-25 11:42:00,
2013-01-25 06:52:00,50.0,49.0,30.30,NW,321,0.0,2.0,98,0.00,,,0.01,,2013-01-25 11:52:00,
2013-01-25 07:03:00,50.0,49.0,30.30,NW,321,0.0,2.0,98,0.00,,,0.01,,2013-01-25 12:03:00,
2013-01-25 07:12:00,50.0,49.0,30.30,NW,321,0.0,2.0,98,0.00,,,0.01,,2013-01-25 12:12:00,
2013-01-25 07:22:00,49.0,48.0,30.31,NW,321,0.0,2.0,98,0.00,,,0.01,,2013-01-25 12:22:00,
2013-01-25 07:32:00,49.0,48.0,30.31,NW,321,0.0,2.0,98,0.00,,,0.01,,2013-01-25 12:32:00,
2013-01-25 07:42:00,49.0,48.0,30.31,NW,321,0.0,2.0,98,0.00,,,0.01,,2013-01-25 12:42:00,
2013-01-25 07:53:00,49.0,48.0,30.32,NW,321,1.0,2.0,98,0.00,,,0.01,,2013-01-25 12:53:00,
2013-01-25 08:03:00,49.0,48.0,30.31,NW,321,1.0,3.0,98,0.00,,,0.01,,2013-01-25 13:03:00,
2013-01-25 08:12:00,49.0,48.0,30.31,NW,321,1.0,3.0,98,0.00,,,0.01,,2013-01-25 13:12:00,
2013-01-25 08:22:00,49.0,48.0,30.31,NW,321,1.0,4.0,98,0.00,,,0.01,,2013-01-25 13:22:00,
2013-01-25 08:33:00,50.0,49.0,30.31,NW,321,0.0,3.0,98,0.00,,,0.01,,2013-01-25 13:33:00,
2013-01-25 08:43:00,50.0,49.0,30.31,NW,321,0.0,3.0,98,0.00,,,0.01,,2013-01-25 13:43:00,
2013-01-25 08:52:00,51.0,51.0,30.32,ENE,69,0.0,4.0,99,0.00,,,0.01,,2013-01-25 13:52:00,
2013-01-25 09:03:00,52.0,52.0,30.32,NNW,347,0.0,4.0,99,0.00,,,0.01,,2013-01-25 14:03:00,
2013-01-25 09:12:00,52.0,52.0,30.32,NNW,347,0.0,4.0,99,0.00,,,0.01,,2013-01-25 14:12:00,
2013-01-25 09:23:00,53.0,53.0,30.32,NNW,338,2.0,4.0,99,0.00,,,0.01,,2013-01-25 14:23:00,
2013-01-25 09:33:00,55.0,54.0,30.32,NNW,336,2.0,5.0,98,0.00,,,0.01,,2013-01-25 14:33:00,
2013-01-25 09:42:00,55.0,54.0,30.32,NNW,336,2.0,5.0,98,0.00,,,0.01,,2013-01-25 14:42:00,
2013-01-25 09:53:00,58.0,57.0,30.32,NNW,336,2.0,4.0,97,0.00,,,0.01,,2013-01-25 14:53:00,
2013-01-25 10:03:00,61.0,58.0,30.33,NNW,335,2.0,5.0,90,0.00,,,0.01,,2013-01-25 15:03:00,
2013-01-25 10:12:00,61.0,58.0,30.33,NNW,335,2.0,5.0,90,0.00,,,0.01,,2013-01-25 15:12:00,
2013-01-25 10:22:00,64.0,58.0,30.33,NNW,335,1.0,5.0,82,0.00,,,0.01,,2013-01-25 15:22:00,
2013-01-25 10:33:00,66.0,58.0,30.33,NNW,334,2.0,5.0,75,0.00,,,0.01,,2013-01-25 15:33:00,
2013-01-25 10:42:00,66.0,58.0,30.33,NNW,334,2.0,5.0,75,0.00,,,0.01,,2013-01-25 15:42:00,
2013-01-25 10:52:00,66.0,56.0,30.33,NNW,334,0.0,4.0,71,0.00,,,0.01,,2013-01-25 15:52:00,
2013-01-25 11:03:00,68.0,57.0,30.32,NNW,334,1.0,4.0,69,0.00,,,0.01,,2013-01-25 16:03:00,
2013-01-25 11:12:00,68.0,57.0,30.32,NNW,334,1.0,4.0,69,0.00,,,0.01,,2013-01-25 16:12:00,
2013-01-25 11:23:00,68.0,57.0,30.32,NNW,334,1.0,4.0,68,0.00,,,0.01,,2013-01-25 16:23:00,
2013-01-25 11:33:00,69.0,57.0,30.32,NNW,334,1.0,5.0,66,0.00,,,0.01,,2013-01-25 16:33:00,
2013-01-25 11:43:00,69.0,57.0,30.32,NNW,334,1.0,5.0,66,0.00,,,0.01,,2013-01-25 16:43:00,
2013-01-25 11:52:00,69.0,56.0,30.32,NNW,334,1.0,4.0,64,0.00,,,0.01,,2013-01-25 16:52:00,
2013-01-25 12:03:00,69.0,56.0,30.32,NNW,334,1.0,4.0,64,0.00,,,0.01,,2013-01-25 17:03:00,
2013-01-25 12:12:00,69.0,56.0,30.32,NNW,334,1.0,4.0,64,0.00,,,0.01,,2013-01-25 17:12:00,
2013-01-25 12:22:00,70.0,54.0,30.30,NW,306,3.0,9.0,56,0.00,,,0.01,,2013-01-25 17:22:00,
2013-01-25 12:33:00,71.0,54.0,30.29,NNW,344,2.0,7.0,54,0.00,,,0.00,,2013-01-25 17:33:00,
2013-01-25 12:43:00,71.0,54.0,30.29,NNW,344,2.0,7.0,54,0.00,,,0.00,,2013-01-25 17:43:00,
2013-01-25 12:53:00,72.0,53.0,30.28,North,5,3.0,8.0,51,0.00,,,0.00,,2013-01-25 17:53:00,
2013-01-25 13:03:00,71.0,52.0,30.27,NNW,347,4.0,7.0,52,0.00,,,0.00,,2013-01-25 18:03:00,
2013-01-25 13:12:00,71.0,52.0,30.27,NNW,347,4.0,7.0,52,0.00,,,0.00,,2013-01-25 18:12:00,
2013-01-25 13:23:00,71.0,53.0,30.26,NNE,16,1.0,8.0,53,0.00,,,0.00,,2013-01-25 18:23:00,
2013-01-25 13:33:00,71.0,53.0,30.26,NNE,16,1.0,8.0,53,0.00,,,0.00,,2013-01-25 18:33:00,
2013-01-25 13:42:00,71.0,53.0,30.26,NNE,16,1.0,8.0,53,0.00,,,0.00,,2013-01-25 18:42:00,
2013-01-25 13:52:00,72.0,53.0,30.25,NW,323,3.0,7.0,52,0.00,,,0.00,,2013-01-25 18:52:00,
2013-01-25 14:03:00,72.0,54.0,30.24,NNW,338,1.0,7.0,53,0.00,,,0.00,,2013-01-25 19:03:00,
2013-01-25 14:12:00,72.0,54.0,30.24,NNW,338,1.0,7.0,53,0.00,,,0.00,,2013-01-25 19:12:00,
2013-01-25 14:23:00,73.0,54.0,30.24,NNW,347,2.0,7.0,51,0.00,,,0.00,,2013-01-25 19:23:00,
2013-01-25 14:33:00,72.0,54.0,30.24,NNE,15,3.0,9.0,53,0.00,,,0.00,,2013-01-25 19:33:00,
2013-01-25 14:42:00,72.0,54.0,30.24,NNE,15,3.0,9.0,53,0.00,,,0.00,,2013-01-25 19:42:00,
2013-01-25 14:52:00,73.0,55.0,30.23,NE,51,2.0,8.0,53,0.00,,,0.00,,2013-01-25 19:52:00,
2013-01-25 15:03:00,72.0,54.0,30.22,NNE,13,4.0,8.0,54,0.00,,,0.00,,2013-01-25 20:03:00,
2013-01-25 15:12:00,72.0,54.0,30.22,NNE,13,4.0,8.0,54,0.00,,,0.00,,2013-01-25 20:12:00,
2013-01-25 15:23:00,73.0,55.0,30.22,NNE,19,0.0,4.0,54,0.00,,,0.00,,2013-01-25 20:23:00,
2013-01-25 15:32:00,72.0,54.0,30.22,ENE,74,2.0,6.0,53,0.00,,,0.00,,2013-01-25 20:32:00,
2013-01-25 15:42:00,72.0,54.0,30.22,ENE,74,2.0,6.0,53,0.00,,,0.00,,2013-01-25 20:42:00,
2013-01-25 15:52:00,71.0,55.0,30.21,NNE,28,0.0,4.0,57,0.00,,,0.00,,2013-01-25 20:52:00,
2013-01-25 16:02:00,72.0,54.0,30.20,ENE,65,2.0,4.0,54,0.00,,,0.00,,2013-01-25 21:02:00,
2013-01-25 16:12:00,72.0,54.0,30.20,ENE,65,2.0,4.0,54,0.00,,,0.00,,2013-01-25 21:12:00,
2013-01-25 16:23:00,72.0,55.0,30.20,NNE,30,0.0,5.0,55,0.00,,,0.00,,2013-01-25 21:23:00,
2013-01-25 16:33:00,71.0,54.0,30.20,NNE,17,2.0,6.0,55,0.00,,,0.00,,2013-01-25 21:33:00,
2013-01-25 16:42:00,71.0,54.0,30.20,NNE,17,2.0,6.0,55,0.00,,,0.00,,2013-01-25 21:42:00,
2013-01-25 16:52:00,71.0,54.0,30.20,NNE,19,0.0,3.0,55,0.00,,,0.00,,2013-01-25 21:52:00,
2013-01-25 17:03:00,71.0,54.0,30.20,NNE,19,1.0,2.0,56,0.00,,,0.00,,2013-01-25 22:03:00,
2013-01-25 17:12:00,71.0,54.0,30.20,NNE,19,1.0,2.0,56,0.00,,,0.00,,2013-01-25 22:12:00,
2013-01-25 17:23:00,71.0,55.0,30.20,NNE,19,0.0,1.0,58,0.00,,,0.00,,2013-01-25 22:23:00,
2013-01-25 17:33:00,69.0,54.0,30.20,NNE,20,0.0,3.0,59,0.00,,,0.00,,2013-01-25 22:33:00,
2013-01-25 17:42:00,69.0,54.0,30.20,NNE,20,0.0,3.0,59,0.00,,,0.00,,2013-01-25 22:42:00,
2013-01-25 17:52:00,68.0,54.0,30.20,NNE,20,0.0,2.0,62,0.00,,,0.00,,2013-01-25 22:52:00,
2013-01-25 18:02:00,67.0,54.0,30.21,NNE,20,0.0,1.0,63,0.00,,,0.00,,2013-01-25 23:02:00,
2013-01-25 18:12:00,67.0,54.0,30.21,NNE,20,0.0,1.0,63,0.00,,,0.00,,2013-01-25 23:12:00,
2013-01-25 18:22:00,67.0,54.0,30.21,NNE,20,0.0,1.0,63,0.00,,,0.00,,2013-01-25 23:22:00,
2013-01-25 18:32:00,66.0,54.0,30.22,NNE,20,0.0,1.0,66,0.00,,,0.00,,2013-01-25 23:32:00,
2013-01-25 18:42:00,66.0,54.0,30.22,NNE,20,0.0,1.0,66,0.00,,,0.00,,2013-01-25 23:42:00,
2013-01-25 18:53:00,65.0,54.0,30.22,NNE,20,0.0,2.0,68,0.00,,,0.00,,2013-01-25 23:53:00,
2013-01-25 19:02:00,62.0,54.0,30.21,NNE,20,0.0,1.0,76,0.00,,,0.00,,2013-01-26 00:02:00,
2013-01-25 19:12:00,62.0,54.0,30.21,NNE,20,0.0,1.0,76,0.00,,,0.00,,2013-01-26 00:12:00,
2013-01-25 19:22:00,60.0,54.0,30.22,NNE,20,0.0,0.0,82,0.00,,,0.00,,2013-01-26 00:22:00,
2013-01-25 19:32:00,60.0,54.0,30.21,NNE,20,0.0,1.0,81,0.00,,,0.00,,2013-01-26 00:32:00,
2013-01-25 19:42:00,60.0,54.0,30.21,NNE,20,0.0,1.0,81,0.00,,,0.00,,2013-01-26 00:42:00,
2013-01-25 19:53:00,58.0,53.0,30.22,NNE,20,0.0,0.0,84,0.00,,,0.00,,2013-01-26 00:53:00,
2013-01-25 20:02:00,59.0,54.0,30.22,NNE,20,0.0,0.0,83,0.00,,,0.00,,2013-01-26 01:02:00,
2013-01-25 20:12:00,59.0,54.0,30.22,NNE,20,0.0,0.0,83,0.00,,,0.00,,2013-01-26 01:12:00,
2013-01-25 20:22:00,59.0,54.0,30.22,NNE,20,0.0,0.0,83,0.00,,,0.00,,2013-01-26 01:22:00,
2013-01-25 20:32:00,57.0,53.0,30.22,NNE,20,0.0,0.0,87,0.00,,,0.00,,2013-01-26 01:32:00,
2013-01-25 20:42:00,57.0,53.0,30.22,NNE,20,0.0,0.0,87,0.00,,,0.00,,2013-01-26 01:42:00,
2013-01-25 20:52:00,56.0,52.0,30.22,NNE,20,0.0,0.0,88,0.00,,,0.00,,2013-01-26 01:52:00,
2013-01-25 21:02:00,54.0,51.0,30.23,NNE,20,0.0,1.0,91,0.00,,,0.00,,2013-01-26 02:02:00,
2013-01-25 21:11:00,54.0,51.0,30.23,NNE,20,0.0,1.0,91,0.00,,,0.00,,2013-01-26 02:11:00,
2013-01-25 21:22:00,54.0,52.0,30.23,NNE,30,0.0,3.0,92,0.00,,,0.00,,2013-01-26 02:22:00,
2013-01-25 21:32:00,53.0,51.0,30.22,NNE,30,0.0,2.0,93,0.00,,,0.00,,2013-01-26 02:32:00,
2013-01-25 21:42:00,53.0,51.0,30.22,NNE,30,0.0,2.0,93,0.00,,,0.00,,2013-01-26 02:42:00,
2013-01-25 21:52:00,54.0,52.0,30.23,NNE,30,0.0,2.0,93,0.00,,,0.00,,2013-01-26 02:52:00,
2013-01-25 22:02:00,56.0,53.0,30.23,NNE,30,0.0,2.0,91,0.00,,,0.00,,2013-01-26 03:02:00,
2013-01-25 22:12:00,56.0,53.0,30.23,NNE,30,0.0,2.0,91,0.00,,,0.00,,2013-01-26 03:12:00,
2013-01-25 22:22:00,56.0,53.0,30.23,NNE,30,0.0,0.0,89,0.00,,,0.00,,2013-01-26 03:22:00,
2013-01-25 22:32:00,55.0,52.0,30.23,NNE,30,0.0,0.0,91,0.00,,,0.00,,2013-01-26 03:32:00,
2013-01-25 22:43:00,55.0,52.0,30.23,NNE,30,0.0,0.0,91,0.00,,,0.00,,2013-01-26 03:43:00,
2013-01-25 22:52:00,54.0,52.0,30.24,West,279,3.0,10.0,92,0.00,,,0.00,,2013-01-26 03:52:00,
2013-01-25 23:02:00,54.0,52.0,30.24,West,279,3.0,10.0,92,0.00,,,0.00,,2013-01-26 04:02:00,
2013-01-25 23:12:00,54.0,52.0,30.24,West,279,3.0,10.0,92,0.00,,,0.00,,2013-01-26 04:12:00,
2013-01-25 23:21:00,55.0,53.0,30.24,West,281,0.0,3.0,93,0.00,,,0.00,,2013-01-26 04:21:00,
2013-01-25 23:32:00,54.0,52.0,30.24,WNW,282,0.0,0.0,93,0.00,,,0.00,,2013-01-26 04:32:00,
2013-01-25 23:42:00,54.0,52.0,30.24,WNW,282,0.0,0.0,93,0.00,,,0.00,,2013-01-26 04:42:00,
2013-01-25 23:52:00,54.0,52.0,30.25,WNW,283,2.0,4.0,94,0.00,,,0.00,,2013-01-26 04:52:00,